TimeCDT,TemperatureF,Dew PointF,Humidity,Sea Level PressureIn,VisibilityMPH,Wind Direction,Wind SpeedMPH,Gust SpeedMPH,PrecipitationIn,Events,Conditions,WindDirDegrees,DateUTC
12:15 AM,36.9,33.6,88,30.10,10.0,Calm,Calm,-,N/A,,Unknown,0,2012-11-03 05:15:00
12:35 AM,36.9,33.8,89,30.10,10.0,ENE,5.8,-,N/A,,Unknown,70,2012-11-03 05:35:00
12:55 AM,37.6,33.8,86,30.12,10.0,ENE,5.8,-,N/A,,Unknown,60,2012-11-03 05:55:00
1:15 AM,37.4,33.8,87,30.11,10.0,ENE,4.6,-,N/A,,Unknown,60,2012-11-03 06:15:00
1:35 AM,36.9,33.3,87,30.11,10.0,ENE,5.8,-,N/A,,Unknown,60,2012-11-03 06:35:00
1:55 AM,36.5,32.9,87,30.11,10.0,ENE,4.6,-,N/A,,Unknown,60,2012-11-03 06:55:00
2:15 AM,36.1,32.9,88,30.12,10.0,NE,5.8,-,N/A,,Clear,50,2012-11-03 07:15:00
2:35 AM,36.0,32.5,87,30.11,10.0,ENE,6.9,-,N/A,,Clear,60,2012-11-03 07:35:00
2:55 AM,35.6,32.5,89,30.11,10.0,ENE,3.5,-,N/A,,Clear,60,2012-11-03 07:55:00
3:15 AM,35.1,32.0,89,30.09,10.0,ENE,4.6,-,N/A,,Clear,60,2012-11-03 08:15:00
3:35 AM,34.7,32.0,90,30.09,10.0,ENE,4.6,-,N/A,,Scattered Clouds,70,2012-11-03 08:35:00
3:55 AM,34.7,32.2,91,30.09,10.0,ENE,4.6,-,N/A,,Mostly Cloudy,60,2012-11-03 08:55:00
4:15 AM,35.6,32.5,89,30.09,10.0,ENE,5.8,-,N/A,,Unknown,70,2012-11-03 09:15:00
4:35 AM,36.0,32.9,89,30.10,10.0,ENE,3.5,-,N/A,,Unknown,70,2012-11-03 09:35:00
4:55 AM,36.7,33.4,88,30.10,10.0,ENE,6.9,-,N/A,,Unknown,60,2012-11-03 09:55:00
5:15 AM,37.2,33.3,86,30.10,10.0,NE,8.1,-,N/A,,Unknown,50,2012-11-03 10:15:00
5:35 AM,37.4,33.1,84,30.12,10.0,ENE,4.6,-,N/A,,Unknown,70,2012-11-03 10:35:00
5:55 AM,37.4,33.3,85,30.11,10.0,ENE,5.8,-,N/A,,Unknown,70,2012-11-03 10:55:00
6:15 AM,37.0,33.3,86,30.11,10.0,East,5.8,-,N/A,,Unknown,80,2012-11-03 11:15:00
6:35 AM,37.4,33.4,86,30.11,10.0,East,4.6,-,N/A,,Unknown,80,2012-11-03 11:35:00
6:55 AM,37.4,32.9,84,30.11,10.0,East,9.2,-,N/A,,Unknown,80,2012-11-03 11:55:00
7:15 AM,37.0,32.9,85,30.11,10.0,ENE,9.2,-,N/A,,Unknown,70,2012-11-03 12:15:00
7:35 AM,37.0,32.9,85,30.13,10.0,ENE,5.8,-,N/A,,Unknown,60,2012-11-03 12:35:00
7:55 AM,37.0,32.9,85,30.14,10.0,ENE,6.9,-,N/A,,Unknown,70,2012-11-03 12:55:00
8:15 AM,37.0,32.9,85,30.14,10.0,ENE,8.1,-,N/A,,Unknown,60,2012-11-03 13:15:00
8:35 AM,36.9,33.4,87,30.13,10.0,East,6.9,-,N/A,Rain,Light Rain,80,2012-11-03 13:35:00
8:55 AM,36.9,33.4,87,30.15,10.0,East,6.9,-,N/A,,Unknown,90,2012-11-03 13:55:00
9:15 AM,36.5,33.4,89,30.14,10.0,East,8.1,-,0.03,Rain,Rain,100,2012-11-03 14:15:00
9:35 AM,36.5,34.0,91,30.15,10.0,East,5.8,-,0.08,Rain,Light Rain,80,2012-11-03 14:35:00
9:55 AM,36.7,34.3,91,30.13,10.0,ESE,6.9,-,0.08,,Unknown,110,2012-11-03 14:55:00
10:15 AM,37.0,34.2,89,30.13,10.0,East,9.2,-,N/A,,Unknown,80,2012-11-03 15:15:00
10:35 AM,37.4,34.5,89,30.13,10.0,East,6.9,-,N/A,,Unknown,80,2012-11-03 15:35:00
10:55 AM,37.6,34.7,89,30.13,10.0,ENE,8.1,-,N/A,,Overcast,70,2012-11-03 15:55:00
11:15 AM,37.6,34.7,89,30.13,10.0,NE,9.2,-,N/A,,Overcast,50,2012-11-03 16:15:00
11:35 AM,37.9,34.7,88,30.13,10.0,ENE,9.2,-,N/A,,Overcast,60,2012-11-03 16:35:00
11:55 AM,38.7,35.2,87,30.14,10.0,NE,8.1,-,N/A,,Unknown,40,2012-11-03 16:55:00
12:15 PM,38.3,34.7,87,30.12,10.0,ENE,8.1,-,N/A,,Overcast,60,2012-11-03 17:15:00
12:35 PM,38.7,35.2,87,30.13,10.0,NE,8.1,-,N/A,,Overcast,40,2012-11-03 17:35:00
12:55 PM,38.5,35.1,87,30.13,7.0,NNE,8.1,-,N/A,,Overcast,30,2012-11-03 17:55:00
1:15 PM,38.3,35.1,88,30.13,10.0,NE,8.1,-,N/A,,Overcast,40,2012-11-03 18:15:00
1:35 PM,38.5,34.7,86,30.13,3.0,NE,6.9,-,N/A,,Overcast,40,2012-11-03 18:35:00
1:55 PM,39.0,35.2,86,30.13,4.0,NE,8.1,-,N/A,,Overcast,40,2012-11-03 18:55:00
2:15 PM,39.2,35.1,85,30.11,0.5,NE,10.4,-,N/A,Fog,Fog,40,2012-11-03 19:15:00
2:35 PM,39.4,35.2,85,30.11,0.2,NE,10.4,-,N/A,Fog,Fog,50,2012-11-03 19:35:00
2:55 PM,39.4,35.1,84,30.11,0.5,NE,9.2,-,N/A,Fog,Fog,50,2012-11-03 19:55:00
3:15 PM,39.2,35.1,85,30.13,1.0,NE,8.1,-,N/A,,Overcast,40,2012-11-03 20:15:00
3:35 PM,39.6,35.1,84,30.12,0.5,NE,10.4,-,N/A,,Haze,40,2012-11-03 20:35:00
3:55 PM,39.9,35.2,83,30.12,10.0,NE,9.2,-,N/A,,Overcast,40,2012-11-03 20:55:00
4:15 PM,39.7,34.9,83,30.13,10.0,NE,8.1,-,N/A,,Overcast,40,2012-11-03 21:15:00
4:35 PM,40.1,34.9,82,30.12,10.0,NE,6.9,-,N/A,,Overcast,50,2012-11-03 21:35:00
4:55 PM,40.1,34.5,80,30.12,10.0,NE,8.1,-,N/A,,Overcast,40,2012-11-03 21:55:00
5:15 PM,39.9,34.5,81,30.13,10.0,NE,6.9,-,N/A,,Unknown,40,2012-11-03 22:15:00
5:35 PM,39.7,34.7,82,30.13,10.0,NE,5.8,-,N/A,,Unknown,40,2012-11-03 22:35:00
5:55 PM,39.7,34.2,80,30.13,10.0,NE,5.8,-,N/A,,Unknown,40,2012-11-03 22:55:00
6:15 PM,39.6,34.3,82,30.14,10.0,NE,3.5,-,N/A,,Unknown,50,2012-11-03 23:15:00
6:35 PM,39.6,34.7,83,30.14,10.0,NE,3.5,-,N/A,,Unknown,40,2012-11-03 23:35:00
6:55 PM,39.4,34.5,83,30.14,10.0,NE,3.5,-,N/A,,Unknown,50,2012-11-03 23:55:00
7:15 PM,39.2,34.9,84,30.15,10.0,North,5.8,-,N/A,,Unknown,10,2012-11-04 00:15:00
7:35 PM,38.3,34.9,87,30.15,10.0,North,4.6,-,N/A,,Unknown,360,2012-11-04 00:35:00
7:55 PM,36.5,33.8,90,30.15,10.0,North,4.6,-,N/A,,Unknown,360,2012-11-04 00:55:00
8:15 PM,37.4,35.1,91,30.15,10.0,NNW,4.6,-,N/A,,Unknown,340,2012-11-04 01:15:00
8:35 PM,37.4,35.6,93,30.15,10.0,NNW,4.6,-,N/A,,Unknown,340,2012-11-04 01:35:00
8:55 PM,37.0,34.3,90,30.15,10.0,North,4.6,-,N/A,,Unknown,360,2012-11-04 01:55:00
9:15 PM,36.5,34.2,91,30.16,10.0,North,5.8,-,N/A,,Unknown,360,2012-11-04 02:15:00
9:35 PM,35.6,32.0,87,30.16,10.0,North,8.1,-,N/A,,Unknown,10,2012-11-04 02:35:00
9:55 PM,34.2,32.0,92,30.16,10.0,NNE,8.1,-,N/A,,Unknown,20,2012-11-04 02:55:00
10:15 PM,33.4,31.1,91,30.16,10.0,North,6.9,-,N/A,,Clear,10,2012-11-04 03:15:00
10:35 PM,33.1,31.1,92,30.15,10.0,NNE,8.1,-,N/A,,Clear,30,2012-11-04 03:35:00
10:55 PM,32.9,30.7,92,30.15,10.0,NNE,6.9,-,N/A,,Clear,20,2012-11-04 03:55:00
11:15 PM,32.2,30.0,92,30.16,10.0,North,5.8,-,N/A,,Clear,10,2012-11-04 04:15:00
11:35 PM,31.8,29.3,90,30.16,10.0,North,5.8,-,N/A,,Clear,360,2012-11-04 04:35:00
11:55 PM,31.6,29.1,90,30.16,10.0,Calm,Calm,-,N/A,,Clear,0,2012-11-04 04:55:00